Regional Weather Roundup
Issued by NWS

Home | Current Version | Previous Version | Text Only | Print | Product List | Glossary On
Versions: 1 2 3 4 5 6 7 8 9 10 11 12 13 14 15 16 17 18 19 20 21 22 23 24 25 26 27 28 29 30 31 32 33
000
ASUS44 KBMX 290110
RWRAL

ALABAMA REGIONAL WEATHER ROUNDUP
NATIONAL WEATHER SERVICE BIRMINGHAM AL
800 PM CDT TUE MAR 28 2017

NOTE: "FAIR" INDICATES FEW OR NO CLOUDS BELOW 12,000 FEET
WITH NO SIGNIFICANT WEATHER AND/OR OBSTRUCTIONS TO VISIBILITY.

THE REMARK "TC" DENOTES TEMPERATURE IN DEGREES CELSIUS.

ALZ001>011-014-016>018-020-290200-
NORTH ALABAMA

CITY           SKY/WX    TMP DP  RH WIND       PRES   REMARKS
MUSCLE SHOALS  CLEAR     67  56  67 CALM      29.98R
HUNTSVILLE     CLEAR     69  59  70 NE5       29.98R
DECATUR        CLEAR     65  58  78 CALM      29.98S
HALEYVILLE     FAIR      66  59  78 VRB3      30.01R
GADSDEN        CLEAR     69  60  73 NW3       29.98R
$$

ALZ012-013-022-023-030>036-040>044-290200-
WEST CENTRAL ALABAMA

CITY           SKY/WX    TMP DP  RH WIND       PRES   REMARKS
TUSCALOOSA     CLEAR     68  67  96 CALM      29.95R
$$

ALZ015-024>027-033>036-040>044-290200-
CENTRAL ALABAMA

CITY           SKY/WX    TMP DP  RH WIND       PRES   REMARKS
BIRMINGHAM     MOCLDY    73  63  70 CALM      29.99R
MONTGOMERY     PTCLDY    76  63  64 N5        29.96R
SHELBY CO ARPT CLEAR     71  66  84 CALM      29.97R
MAXWELL AFB    CLEAR     73  65  75 CALM      29.96R
GREENVILLE     FAIR      73  61  65 CALM      29.95R
$$

ALZ019-021-028-029-037-038-045>048-290200-
EAST CENTRAL ALABAMA

CITY           SKY/WX    TMP DP  RH WIND       PRES   REMARKS
ANNISTON       CLOUDY    74  66  76 W3        29.97R
ALEXANDER CITY CLEAR     67  65  93 CALM      29.98S FOG
AUBURN         CLOUDY    72  62  71 NW5       30.00R
$$

ALZ051>064-290200-
SOUTHWEST ALABAMA

CITY           SKY/WX    TMP DP  RH WIND       PRES   REMARKS
MOBILE         CLEAR     72  66  81 S7        29.99R
BROOKLEY FIELD CLEAR     73  68  84 VRB6      29.99R
EVERGREEN      CLEAR     73  64  73 S7        29.97R
$$

ALZ049-050-065>069-290200-
SOUTHEAST ALABAMA

CITY           SKY/WX    TMP DP  RH WIND       PRES   REMARKS
DOTHAN         CLEAR     75  64  68 S8        30.01R
OZARK          CLEAR     74  62  66 S9        29.97R
TROY           CLEAR     73  61  65 CALM      29.97R
EUFAULA        MOCLDY    73  63  70 CALM      29.96R
$$




USA.gov is the U.S. government's official web portal to all federal, state and local government web resources and services.